Location: Brunembert
(50.7122°N, 1.8935°E)
Time: 02:32:25
(UTC+00:00)

Cosmos 1500 Rocket - Pass Details

Date: 07 August 2021
Orbit: 602 x 632 km, 82.5° (Epoch: 18 September)

Event Time Altitude Azimuth Distance (km) Brightness Sun altitude
Exits shadow 22:12:39 - 224° (SW) 2,210 6.2 -19.2°
Reaches altitude 10° 22:13:14 10° 227° (SW) 2,001 6.0 -19.3°
Maximum altitude 22:17:11 31° 290° (WNW) 1,124 5.3 -19.6°
Drops below altitude 10° 22:21:10 10° 353° (N) 2,025 7.3 -19.8°
Sets 22:23:39 0° 4° (N) 2,940 8.1 -20.0°
